Probability
0 0 0 0 0 0 0 0 0 0 0 0 0 0 0 0 0 0 0 0 0 0 0 3 3 0 3 3 0 0 0 0 3 0 0 0 0 0 0 3 0 0 0
0 0 0 0 0 0 0 0 0 0 0 0 0 0 0 0 0 0 0 0 0 0 0 0 0 0 0 3 3 0 0 0 3 0 0 0 0 0 0 0 0 0 0
0 0 0 0 0 0 0 0 0 0 0 0 0 0 0 0 0 0 0 0 0 0 0 0 0 0 0 3 3 3 0 0 3 3 0 0 0 0 0 0 0 0 0
0 0 0 0 0 0 0 0 0 0 0 0 0 0 0 0 0 0 0 0 0 0 0 0 0 0 0 0 3 0 0 3 3 3 0 0 0 0 0 0 0 0 0
0 0 0 0 0 0 0 0 0 0 0 0 0 0 0 0 0 0 0 0 0 0 0 0 0 0 0 0 0 0 0 0 0 0 0 0 0 0 0 0 0 0 3
0 0 0 0 0 0 0 0 0 0 0 0 0 0 0 0 0 0 0 0 0 0 0 0 0 0 0 0 0 0 0 0 0 0 0 0 0 0 0 0 0 0 0
0 0 0 0 0 0 0 0 0 0 0 0 0 0 0 0 0 0 0 0 0 0 0 0 0 0 0 0 0 0 0 0 0 0 0 0 0 0 0 0 0 0 0
0 0 0 0 0 0 0 0 0 0 0 0 0 0 0 0 0 0 0 0 0 0 0 0 0 0 0 0 0 0 0 0 0 0 0 0 0 0 0 3 3 0 0
0 0 0 0 0 0 0 0 0 0 0 0 0 0 0 0 0 0 0 0 0 0 0 0 0 0 0 0 0 0 0 0 0 0 0 0 0 0 0 0 0 0 0
0 0 0 0 0 0 0 0 0 0 0 0 0 0 0 0 0 0 0 0 0 0 0 0 0 0 0 0 0 0 0 0 0 0 0 0 0 0 0 0 0 0 0
0 0 0 0 0 0 0 0 0 0 0 0 0 0 0 0 0 0 0 0 0 0 0 0 0 0 0 0 0 0 0 0 0 0 0 0 0 0 0 0 0 0 0
0 0 0 0 0 0 0 0 0 0 0 0 0 0 0 0 0 0 0 0 0 0 0 0 0 0 0 0 0 0 0 0 0 0 0 0 0 0 0 0 0 0 0
0 0 0 0 0 0 0 0 0 0 0 0 0 0 0 0 0 0 0 0 0 0 0 0 0 0 0 0 0 0 0 0 0 0 0 0 0 0 0 0 0 0 0
0 0 0 0 0 0 0 0 0 0 0 0 0 0 0 0 0 0 0 0 0 0 0 0 0 0 0 0 0 0 0 0 0 0 0 0 0 0 0 0 0 0 0
0 0 0 0 0 0 0 0 0 0 0 0 0 0 0 0 0 0 0 0 0 0 0 0 0 0 0 0 0 0 0 0 0 0 0 0 0 0 0 0 0 0 0
0 0 0 0 0 0 0 0 0 0 0 0 0 0 0 0 0 0 0 0 0 0 0 0 0 0 0 0 0 0 0 0 0 0 0 0 0 0 0 0 0 0 0
0 0 0 0 0 0 0 0 0 0 0 0 0 0 0 0 0 0 0 0 0 0 0 0 0 0 0 0 0 0 0 0 0 0 0 0 0 0 0 0 0 0 0
0 0 0 0 0 0 0 0 0 0 0 0 0 0 0 0 0 0 0 0 0 0 0 0 0 0 0 0 0 0 0 0 0 0 0 0 0 0 0 0 0 0 0
0 0 0 0 0 0 0 0 0 0 0 0 0 0 0 0 0 0 0 0 0 0 0 0 0 0 0 0 0 0 0 0 0 0 0 0 0 0 0 0 0 0 0
0 0 0 0 0 0 0 0 0 0 0 0 0 0 0 0 0 0 0 0 0 0 0 0 0 0 0 0 0 0 0 0 0 0 0 0 0 0 0 0 0 0 0
0 0 0 0 0 0 0 0 0 0 0 0 0 0 0 0 0 0 0 0 0 0 0 0 0 0 0 0 0 0 0 0 0 0 0 0 0 0 0 0 0 0 0
0 0 0 0 0 0 0 0 0 0 0 0 0 0 0 0 0 0 0 0 0 0 0 0 0 0 0 0 0 0 0 0 0 0 0 0 0 0 0 0 0 0 0
0 0 0 0 0 0 0 0 0 0 0 0 0 0 0 0 0 0 0 0 0 0 0 0 0 0 0 0 0 0 0 0 0 0 0 0 0 0 0 0 0 0 0
0 0 0 0 0 0 0 0 0 0 0 0 0 0 0 0 0 0 0 0 0 0 0 0 0 0 0 0 0 0 0 0 0 0 0 0 0 0 0 0 0 0 0
0 0 0 0 0 0 0 0 0 0 0 0 0 0 0 0 0 0 0 0 0 0 0 0 0 0 0 0 0 0 0 0 0 0 0 0 0 0 0 0 0 0 0
0 0 0 0 0 0 0 0 0 0 0 0 0 0 0 0 0 0 0 0 0 0 0 0 0 0 0 0 0 0 0 0 0 0 0 0 0 0 0 0 0 0 0
Height
5780 5781 5782 5783 5784 5785 5786 5788 5789 5790 5791 5792 5793 5794 5795 5797 5798 5799 5800 5802 5803 5804 5805 5805 5806 5807 5808 5809 5810 5810 5811 5812 5813 5813 5814 5815 5815 5816 5816 5817 5818 5818 5819
5772 5773 5774 5775 5776 5778 5779 5780 5781 5782 5783 5784 5785 5786 5788 5789 5790 5791 5793 5794 5795 5796 5797 5798 5799 5800 5801 5802 5803 5804 5805 5805 5806 5807 5808 5808 5809 5809 5810 5811 5812 5813 5813
5764 5765 5766 5767 5768 5769 5771 5771 5773 5774 5775 5776 5777 5778 5779 5781 5782 5783 5784 5786 5787 5788 5789 5791 5792 5793 5794 5795 5796 5796 5797 5798 5799 5800 5801 5801 5802 5802 5803 5804 5805 5807 5808
5755 5756 5757 5758 5759 5761 5762 5763 5764 5765 5766 5767 5768 5769 5770 5772 5773 5774 5776 5777 5778 5780 5781 5782 5784 5785 5786 5787 5788 5788 5789 5790 5791 5792 5793 5794 5794 5795 5796 5797 5799 5800 5801
5745 5746 5748 5749 5750 5751 5752 5753 5754 5755 5756 5757 5758 5760 5761 5762 5764 5765 5767 5768 5769 5771 5772 5773 5775 5776 5777 5778 5779 5780 5781 5782 5783 5784 5785 5786 5787 5788 5789 5790 5792 5793 5795
5735 5736 5738 5739 5740 5741 5742 5743 5744 5745 5746 5747 5748 5750 5751 5753 5754 5755 5757 5758 5760 5761 5762 5764 5765 5766 5768 5769 5770 5771 5772 5773 5774 5775 5776 5777 5778 5780 5781 5783 5784 5786 5787
5725 5726 5727 5728 5729 5730 5731 5732 5734 5735 5735 5737 5738 5739 5741 5742 5743 5744 5746 5747 5749 5750 5752 5753 5754 5756 5757 5759 5760 5761 5762 5764 5765 5765 5766 5768 5769 5771 5773 5774 5776 5778 5779
5713 5715 5716 5717 5718 5719 5720 5721 5722 5723 5724 5725 5727 5728 5729 5731 5732 5733 5734 5736 5737 5738 5740 5741 5742 5744 5745 5747 5749 5750 5752 5753 5755 5756 5757 5758 5760 5761 5763 5765 5767 5769 5771
5701 5703 5704 5705 5706 5707 5708 5709 5710 5711 5712 5713 5714 5716 5717 5719 5720 5722 5722 5723 5724 5726 5727 5728 5730 5732 5733 5735 5737 5738 5740 5742 5743 5745 5746 5748 5749 5751 5753 5755 5757 5759 5761
5689 5690 5691 5693 5694 5695 5696 5697 5698 5699 5700 5701 5702 5703 5704 5705 5707 5709 5710 5710 5711 5713 5714 5716 5717 5719 5720 5722 5724 5726 5727 5729 5731 5733 5735 5737 5738 5740 5742 5745 5747 5749 5751
5676 5677 5678 5679 5681 5682 5683 5683 5684 5685 5686 5687 5688 5689 5690 5691 5692 5694 5696 5697 5698 5699 5700 5702 5703 5705 5707 5709 5711 5712 5714 5716 5718 5720 5722 5724 5727 5729 5731 5733 5735 5738 5740
5663 5663 5664 5666 5667 5668 5669 5669 5670 5671 5672 5673 5674 5675 5676 5677 5678 5679 5681 5682 5683 5685 5686 5687 5689 5691 5693 5694 5696 5698 5700 5702 5704 5706 5709 5711 5713 5716 5718 5721 5723 5726 5728
5649 5649 5650 5651 5652 5653 5654 5655 5656 5657 5657 5658 5659 5660 5661 5662 5663 5664 5665 5666 5668 5670 5671 5672 5673 5675 5677 5679 5681 5683 5685 5687 5689 5691 5694 5696 5699 5701 5704 5707 5710 5713 5715
5634 5635 5636 5637 5638 5639 5639 5640 5641 5642 5642 5643 5644 5645 5645 5646 5646 5647 5649 5650 5652 5653 5655 5657 5658 5659 5661 5663 5665 5667 5669 5671 5673 5675 5678 5681 5683 5686 5689 5692 5695 5698 5701
5619 5620 5620 5621 5623 5623 5624 5625 5626 5626 5627 5627 5628 5629 5629 5630 5631 5631 5633 5634 5636 5637 5640 5641 5642 5643 5644 5646 5648 5650 5652 5654 5656 5658 5661 5664 5667 5670 5673 5676 5679 5682 5686
5604 5604 5605 5606 5607 5608 5608 5609 5610 5610 5611 5611 5612 5612 5613 5614 5614 5615 5617 5618 5619 5621 5623 5625 5626 5627 5628 5630 5631 5633 5635 5637 5640 5642 5644 5647 5650 5653 5656 5659 5662 5666 5669
5588 5589 5589 5590 5591 5592 5593 5593 5594 5594 5595 5595 5596 5596 5597 5598 5599 5599 5601 5602 5603 5605 5607 5609 5609 5610 5611 5613 5615 5616 5619 5621 5623 5625 5628 5630 5633 5636 5639 5642 5645 5649 5652
5573 5573 5574 5574 5575 5576 5576 5577 5577 5578 5578 5579 5579 5580 5581 5582 5582 5583 5584 5586 5587 5588 5590 5592 5593 5593 5594 5596 5598 5600 5602 5604 5606 5609 5611 5613 5616 5619 5622 5625 5628 5631 5635
5558 5558 5558 5559 5559 5559 5560 5560 5561 5561 5562 5562 5563 5564 5564 5565 5566 5567 5568 5569 5570 5571 5573 5575 5576 5576 5577 5579 5581 5583 5585 5587 5589 5591 5594 5596 5599 5601 5604 5607 5610 5614 5618
5543 5543 5543 5543 5543 5543 5543 5543 5544 5544 5545 5546 5546 5547 5547 5548 5549 5550 5551 5552 5553 5554 5555 5557 5558 5559 5560 5561 5563 5565 5567 5569 5571 5574 5576 5579 5581 5584 5587 5590 5594 5597 5600
5527 5527 5527 5527 5527 5527 5527 5527 5527 5528 5528 5529 5529 5529 5530 5530 5531 5532 5533 5534 5535 5536 5537 5539 5540 5541 5542 5543 5545 5547 5549 5551 5553 5555 5558 5561 5564 5567 5569 5572 5575 5578 5581
5512 5512 5512 5512 5511 5511 5511 5511 5511 5511 5512 5512 5512 5512 5513 5513 5514 5515 5516 5516 5517 5518 5520 5521 5522 5523 5524 5525 5527 5528 5530 5533 5537 5540 5540 5542 5545 5548 5550 5554 5556 5559 5563
5498 5497 5496 5496 5495 5495 5494 5494 5494 5494 5494 5495 5495 5496 5496 5497 5497 5498 5498 5499 5499 5500 5501 5503 5504 5504 5506 5508 5510 5512 5512 5514 5517 5519 5521 5524 5526 5529 5532 5534 5537 5540 5544
5482 5482 5481 5480 5480 5479 5478 5478 5478 5478 5478 5478 5478 5478 5479 5479 5480 5480 5481 5482 5482 5483 5484 5485 5486 5487 5487 5488 5490 5493 5494 5496 5499 5501 5502 5506 5508 5510 5513 5516 5518 5521 5525
5467 5467 5466 5465 5465 5464 5463 5462 5462 5462 5461 5461 5461 5461 5461 5462 5463 5463 5464 5465 5465 5465 5465 5466 5467 5468 5469 5470 5472 5474 5476 5478 5481 5483 5484 5487 5490 5492 5495 5498 5500 5503 5506
5453 5452 5451 5450 5449 5448 5447 5446 5445 5445 5445 5445 5445 5444 5444 5444 5445 5445 5445 5446 5447 5448 5448 5449 5450 5451 5452 5453 5454 5456 5458 5460 5462 5465 5466 5468 5471 5473 5477 5480 5482 5484 5487
Wind_Speed
33 33 33 33 33 33 33 32 32 32 32 32 32 32 32 32 32 32 32 31 32 31 31 31 30 30 30 30 30 29 29 29 28 27 27 26 26 25 25 25 24 23 23
35 35 35 34 34 35 35 34 34 34 34 34 34 34 33 33 33 33 33 33 33 33 33 32 32 31 31 31 30 31 30 30 30 29 29 28 28 27 27 26 26 25 24
37 37 37 37 36 36 37 37 37 37 36 36 36 36 35 35 35 35 35 35 35 35 34 34 33 33 32 32 32 32 31 31 31 31 31 30 29 29 28 28 27 27 26
39 39 39 39 39 39 39 39 39 39 39 38 38 38 38 37 37 37 37 37 37 36 36 36 35 35 34 34 33 33 33 33 33 33 32 32 31 30 30 30 29 28 28
41 41 41 41 41 41 40 40 40 41 40 39 40 40 39 39 40 40 39 39 39 39 38 38 38 38 37 37 36 35 35 35 35 35 34 34 33 32 31 31 31 30 30
43 43 43 43 43 43 43 42 42 41 41 42 41 41 41 41 41 41 41 41 41 41 41 41 40 40 40 40 40 38 37 37 37 37 36 35 35 34 34 33 32 32 32
45 45 45 44 45 45 45 45 45 45 45 44 44 44 44 44 44 44 43 43 44 44 44 44 43 43 43 42 42 42 41 40 40 40 39 38 37 37 36 35 34 34 34
46 46 46 47 47 47 46 47 47 47 47 47 47 47 47 47 46 46 46 46 46 47 46 46 45 45 45 45 45 44 44 43 42 42 41 41 40 40 38 38 38 36 36
49 48 48 48 49 49 49 49 49 49 49 49 49 49 49 49 49 49 49 48 48 48 48 48 48 47 47 47 47 47 46 46 45 44 43 43 42 42 41 41 40 40 38
50 50 51 50 50 51 51 51 52 52 52 52 51 51 51 51 51 51 51 51 51 51 50 50 50 50 50 49 49 49 49 48 48 46 46 45 44 44 43 43 42 41 41
51 51 52 52 53 53 53 53 53 54 53 53 53 53 53 53 53 53 53 53 53 53 53 53 52 52 52 52 51 51 51 50 50 49 48 48 47 47 46 45 45 44 43
53 53 53 53 53 53 53 53 54 54 54 54 54 55 55 55 55 55 55 55 55 55 55 55 55 55 55 54 54 53 53 53 53 52 51 51 50 50 49 48 48 47 46
54 54 54 54 54 54 54 55 54 54 55 55 55 56 56 57 58 57 57 57 56 56 56 57 57 57 57 57 56 56 56 56 55 55 55 54 53 53 52 51 51 50 49
55 56 56 56 55 55 56 56 57 57 57 57 56 57 57 58 58 58 57 57 57 57 57 57 57 57 57 57 57 57 57 57 57 57 57 57 56 56 55 54 53 52 52
56 56 57 57 57 57 57 57 57 58 59 58 58 57 57 57 58 57 57 57 57 56 55 56 57 56 56 57 58 58 58 58 58 58 58 58 58 58 58 58 56 55 54
56 57 57 58 58 58 57 58 58 58 58 58 57 57 57 56 56 56 56 56 56 56 56 56 57 57 57 58 58 58 58 58 58 58 58 58 58 59 59 59 59 57 56
55 56 57 57 58 58 59 58 58 59 58 58 57 57 57 56 56 56 56 56 57 57 57 56 57 57 58 58 58 59 59 58 58 58 58 58 59 59 59 60 60 59 58
56 56 56 57 58 59 59 60 60 59 59 59 58 58 58 57 57 57 57 57 57 58 58 58 57 58 58 58 59 59 59 58 58 58 58 58 59 59 60 60 61 61 60
56 56 56 57 57 58 60 60 60 60 59 59 59 59 59 59 59 59 59 59 59 59 59 59 59 59 59 59 59 60 60 60 60 60 59 59 59 59 60 60 60 61 61
55 55 56 57 57 58 59 59 59 59 59 59 59 59 59 59 60 59 60 60 60 60 60 60 60 60 60 61 61 61 61 61 61 61 60 60 60 60 60 60 61 61 61
54 54 55 56 57 57 57 57 57 57 57 58 58 58 58 58 58 59 59 59 60 60 60 60 60 61 61 61 62 62 62 61 61 61 62 62 62 62 62 62 62 62 62
53 54 54 55 55 56 56 56 56 56 57 57 58 58 58 58 58 59 59 59 60 61 61 61 60 60 60 60 61 61 61 61 61 61 62 62 63 63 63 63 64 64 63
53 53 54 54 54 55 55 55 55 56 56 57 57 57 57 57 57 58 58 59 59 59 60 60 60 59 59 59 60 60 60 59 59 60 61 61 62 62 63 64 64 64 64
52 52 52 52 53 53 53 54 54 55 55 56 56 56 57 57 57 58 58 58 59 59 59 59 59 58 58 58 59 59 58 58 59 60 61 60 61 61 62 62 63 63 63
51 51 51 51 51 52 53 53 54 54 54 54 54 55 56 57 57 58 58 58 57 57 57 57 58 58 58 58 58 58 58 58 58 59 60 60 60 61 61 62 62 62 63
50 50 51 51 51 52 53 53 54 54 55 55 55 55 56 56 56 56 56 56 56 56 56 56 56 56 57 57 57 57 57 57 58 58 59 59 60 60 60 61 62 62 63
Wind_Direction
260 260 260 260 260 261 262 262 261 260 260 261 261 262 262 262 262 262 262 263 263 264 263 263 263 264 264 265 265 266 268 267 267 267 268 268 270 269 267 266 264 264 264
260 260 260 260 260 261 262 262 261 260 260 260 261 262 262 262 263 263 263 263 263 264 264 263 263 264 264 265 266 267 267 267 266 266 268 268 269 268 266 264 264 263 263
260 260 260 260 260 260 261 262 261 261 261 261 261 261 261 262 262 263 263 263 263 264 264 263 263 264 264 265 266 266 266 267 266 266 266 267 268 267 265 263 263 263 262
259 260 260 260 261 261 261 261 262 262 262 262 262 262 262 262 262 262 263 263 263 264 264 263 264 264 264 264 265 265 265 265 266 265 265 266 265 264 264 262 262 262 262
259 259 259 260 261 261 262 261 262 263 262 262 262 261 262 262 262 262 262 262 263 264 264 264 264 264 264 264 264 264 264 264 265 265 264 264 264 262 262 261 261 261 261
259 259 260 260 260 261 261 261 261 262 262 262 262 262 262 262 262 262 262 262 263 263 264 264 264 264 264 264 264 264 264 264 265 264 264 263 263 262 261 260 260 260 260
260 260 259 260 261 261 262 263 263 263 263 263 263 262 262 262 262 262 263 263 263 263 264 264 265 265 264 264 264 263 264 264 265 265 264 263 262 261 260 258 259 260 260
260 261 261 261 261 262 263 263 264 263 264 264 264 263 263 263 262 262 263 264 264 264 264 264 264 264 264 263 263 263 263 264 264 264 264 263 262 261 260 259 259 260 260
261 261 261 262 262 263 263 263 264 264 264 264 265 264 264 263 263 263 263 264 264 264 264 263 263 263 263 263 263 263 262 262 263 263 263 262 261 260 260 260 260 260 260
262 262 262 263 263 264 264 264 265 265 265 265 265 265 265 265 265 264 264 264 264 264 263 263 263 264 264 263 263 263 262 262 261 262 262 261 260 259 260 260 260 260 260
262 263 263 263 263 264 265 265 266 265 265 265 265 265 265 265 266 265 265 264 263 263 263 263 263 263 263 262 262 262 262 261 261 260 260 260 260 259 259 259 260 260 259
262 263 263 264 264 264 265 266 266 266 265 266 266 266 266 266 266 266 265 264 263 263 263 263 263 263 263 262 262 262 262 261 260 260 260 260 260 259 259 258 258 258 258
263 263 263 264 263 263 264 265 265 266 266 266 267 267 267 267 267 267 265 264 263 263 263 263 263 263 262 262 262 262 261 261 261 260 260 259 259 259 259 258 258 258 258
262 263 263 264 264 264 265 265 266 266 267 267 267 268 268 268 268 266 265 264 263 263 263 263 263 263 262 262 262 262 262 261 261 260 260 258 258 258 258 258 258 257 257
263 263 263 263 264 264 265 265 266 266 267 267 267 268 268 268 268 266 266 265 264 264 264 263 263 263 263 262 262 261 261 261 261 260 260 259 258 257 257 257 257 257 257
264 264 264 263 263 264 265 265 266 266 266 266 267 267 268 268 267 266 266 265 265 265 265 264 264 263 263 262 262 261 261 261 260 260 260 259 258 257 257 257 257 256 256
265 265 266 265 265 264 264 265 265 266 265 266 266 267 267 267 266 265 265 266 266 265 266 265 265 265 264 262 262 261 261 261 261 260 260 260 259 258 257 256 256 256 255
267 267 267 266 266 265 265 266 266 265 265 265 266 267 266 266 265 265 265 266 267 266 266 266 266 266 265 263 262 261 260 261 261 261 260 260 260 259 258 257 256 255 256
267 267 267 267 267 266 266 266 265 265 265 266 267 267 267 266 265 265 265 266 266 267 266 266 266 266 265 264 263 262 261 261 260 260 260 260 260 259 258 257 257 256 255
268 268 268 268 268 268 268 267 266 265 266 266 267 267 267 266 265 266 266 266 266 266 266 267 267 266 266 265 264 263 263 262 261 261 260 260 259 259 258 257 257 257 256
268 269 269 269 269 269 268 267 267 266 267 267 267 267 267 266 266 266 266 266 266 266 266 267 267 266 265 265 264 263 263 262 261 261 261 260 260 259 258 258 257 257 257
270 270 271 271 270 269 268 268 267 267 267 267 267 266 266 266 266 266 267 267 267 267 267 267 267 266 265 264 264 263 262 261 261 261 261 260 260 259 259 259 258 258 257
271 271 271 271 270 270 269 269 268 268 269 268 268 267 266 266 266 267 267 267 268 267 267 267 266 266 264 264 264 263 262 261 261 261 260 260 260 260 260 259 259 258 258
271 271 271 271 270 270 270 270 270 270 270 270 269 268 267 267 267 267 267 267 268 268 267 267 266 265 264 263 263 262 262 262 261 261 260 260 259 259 259 259 258 258 258
271 271 270 270 270 269 269 270 270 270 270 271 270 269 268 268 268 268 267 268 267 267 267 266 266 265 264 264 263 262 262 262 262 261 261 260 259 259 258 258 258 257 257
271 271 271 271 270 269 269 270 270 270 271 272 271 270 269 269 269 268 268 267 267 267 266 265 266 265 265 264 263 263 263 263 262 262 261 261 260 259 258 258 258 258 258